Regional Weather Roundup
Issued by NWS

Home | Current Version | Previous Version | Graphics & Text | Print | Product List | Glossary On
Versions: 1 2 3 4 5 6 7 8 9 10 11 12 13 14 15 16 17 18 19 20 21 22 23 24 25 26 27 28 29 30 31 32 33 34 35 36 37 38 39 40 41 42 43 44 45 46 47 48 49 50
000
ASUS43 KMKX 251311
RWRWI

WISCONSIN REGIONAL WEATHER ROUNDUP
NATIONAL WEATHER SERVICE MILWAUKEE/SULLIVAN WI
800 AM CDT TUE JUL 25 2017

NOTE: "FAIR" INDICATES FEW OR NO CLOUDS BELOW 12,000 FEET WITH NO
SIGNIFICANT WEATHER AND/OR OBSTRUCTIONS TO VISIBILITY.

WIZ001-002-006>008-014>016-023>028-251400-
NORTHWEST WISCONSIN

CITY           SKY/WX    TMP DP  RH WIND       PRES   REMARKS
SUPERIOR ARPT  NOT AVBL
ASHLAND        MOSUNNY   63  60  90 S3        30.08S
HAYWARD        PTSUNNY   62  59  90 SE3       30.10R
SIREN          MOSUNNY   66  60  79 S10       30.05F
CUMBERLAND     PTSUNNY   63  59  88 S9        30.10R
RICE LAKE      PTSUNNY   63  59  88 SE8       30.13R
CHETEK         MOSUNNY   62  60  94 SE9       30.12R
LADYSMITH      CLOUDY    62  59  89 SE6       30.15S
EAU CLAIRE     MOSUNNY   64  59  83 S9        30.10F
MENOMONIE      CLOUDY    64  61  90 E6        30.10R
NEW RICHMOND   CLOUDY    65  59  81 SE8       30.08F
OSCEOLA        CLOUDY    65  65 100 SE8       30.08F
$$

WIZ003>005-009-010-017-018-251400-
NORTH CENTRAL WISCONSIN

CITY           SKY/WX    TMP DP  RH WIND       PRES   REMARKS
MANITOWISH WTR PTSUNNY   63  55  77 S9G16     30.16S
ARBOR VITAE    SUNNY     62  55  76 SW5       30.17R
WOODRUFF       SUNNY     62  55  76 SW5       30.17R
RHINELANDER    MOSUNNY   61  55  81 S6        30.19R
EAGLE RIVER    SUNNY     61  53  73 S5        30.18R
LAND O LAKES   SUNNY     61  54  78 S6        30.20R
PHILLIPS       CLOUDY    61  55  81 S8        30.14F
TOMAHAWK         N/A     62  55  77 CALM      30.19S
MEDFORD        CLOUDY    60  55  82 S8        30.17F
MERRILL        CLOUDY    59  56  89 CALM      30.20R
$$

WIZ029-030-035-036-043>047-251400-
CENTRAL WISCONSIN

CITY           SKY/WX    TMP DP  RH WIND       PRES   REMARKS
WAUSAU         MOSUNNY   60  52  74 S3        30.18R
MOSINEE        PTSUNNY   57  55  94 CALM      30.20R
MARSHFIELD     LGT RAIN  59  55  87 S5        30.18R
STEVENS POINT  CLOUDY    58  51  77 W3        30.20R
WAUPACA        MOSUNNY   58  58  99 CALM      30.19S
WAUTOMA        SUNNY     60  56  86 SE3       30.18S
WISC RAPIDS    CLOUDY    62  55  77 SW6       30.19R
CAMP DOUGLAS   PTSUNNY   63  59  88 S5        30.17R
$$

WIZ011>013-019>022-031-037>040-048>050-251400-
NORTHEAST WISCONSIN

CITY           SKY/WX    TMP DP  RH WIND       PRES   REMARKS
ANTIGO         MOSUNNY   60  55  82 CALM      30.20R
SHAWANO        MOSUNNY   63  54  74 CALM      30.18S
OCONTO         MOSUNNY   61  57  86 CALM      30.19S
STURGEON BAY     N/A     66  60  81 SE6       30.20R
GREEN BAY      CLOUDY    60  55  83 S3        30.19S
MANITOWOC      CLOUDY    63  58  83 CALM      30.20S
APPLETON       MOSUNNY   61  52  72 VRB3      30.19R
CLINTONVILLE   PTSUNNY  N/A N/A N/A SE5       30.18F
OSHKOSH        MOSUNNY   61  56  83 S8        30.18S
$$

WIZ032>034-041-042-053>061-251400-
SOUTHWEST WISCONSIN

CITY           SKY/WX    TMP DP  RH WIND       PRES   REMARKS
LA CROSSE      MOSUNNY   68  60  75 S8        30.14R
SPARTA         CLOUDY    64  59  84 S6        30.16S
VIROQUA        MOSUNNY   63  61  94 CALM      30.16R
BOSCOBEL       SUNNY     65  61  87 CALM      30.15F
PRAIRIE DU CHI MOSUNNY   64  60  87 SE3       30.14S
PLATTEVILLE    SUNNY     62  62 100 SE7       30.18R
$$

WIZ056-057-062-063-064-067-068-251400-
SOUTH CENTRAL WISCONSIN

CITY           SKY/WX    TMP DP  RH WIND       PRES   REMARKS
REEDSBURG      SUNNY     63  61  95 S5        30.16S
BARABOO/DELLS  SUNNY     62  58  86 S10       30.17R
LONE ROCK      SUNNY     61  59  93 E5        30.15F
MINERAL POINT  SUNNY     63  63 100 SE7       30.18R
MADISON        MOSUNNY   64  60  87 S8        30.17F
MIDDLETON      MOSUNNY   65  65  99 S7        30.18S
WATERTOWN      MOSUNNY   62  61  97 CALM      30.20R
MONROE         PTSUNNY   61  59  94 CALM      30.19R
JANESVILLE     MOSUNNY   64  63  94 CALM      30.18R
$$

WIZ051-052-058>065-066-070>072-251400-
SOUTHEAST WISCONSIN

CITY           SKY/WX    TMP DP  RH WIND       PRES   REMARKS
MILWAUKEE      MOSUNNY   67  62  84 SE3       30.20R
WAUKESHA       SUNNY     63  59  88 CALM      30.20S
MILWAUKEE/TIMM SUNNY     63  55  77 CALM      30.21R
RACINE         SUNNY     69  64  84 E3        30.20F
KENOSHA        SUNNY     68  63  84 E5        30.19S
FOND DU LAC    MOSUNNY   60  54  80 S3        30.20R
SHEBOYGAN      MOSUNNY   62  60  93 CALM      30.20R
WEST BEND      SUNNY     63  61  94 CALM      30.20S
JUNEAU         MOSUNNY   60  56  89 CALM      30.21R
$$

LSZ147-162-251400-
LAKE SUPERIOR

STATION/POSITION TIME  TEMP    WIND        PRES    WAVE
                       AIR SEA DIR/SP/G            HT/PER
                 (UTC) (F)     (DEG/KT/KT) (MB)    (FT/S)
W MID LAKE BUOY  1250   56 49  170/ 10/ 10 1019.1F   0
DEVILS ISLAND    1200   63     160/  7/  9 1018.2S
SAXON HARBOR     1240   67     210/  7/ 10 1018.3F
$$

LMZ867-665-643>646-251400-
LAKE MICHIGAN

STATION/POSITION TIME  TEMP    WIND        PRES    WAVE
                       AIR SEA DIR/SP/G            HT/PER
                 (UTC) (F)     (DEG/KT/KT) (MB)    (FT/S)
CHAMBERS ISLAND  1240   68     130/  4/  7 1021.7R
S GREEN BAY BUOY 1300   66 72  170/  8/  8 1021.7
N MID LAKE BUOY  1250   66 66  160/  6/  8 1023.2R   0
NORTHPORT PIER   1240   67     130/  7/  8 1022.4R
KEWAUNEE LAKESHO 1248   64        CALM     1021.3R
SHEBOYGAN LAKESH 1300   64     230/  2/  2 1022.2R
PORT WASHINGTON  1230   68     280/  1/  4 1023.4R
ATWATER BUOY     1109   65 68  230/  2/  4 1022.2R
MILWAUKEE LAKESH 1250   70        CALM       N/A
S MID LAKE BUOY  1150   70 71  140/ 10/ 10 1022.0R   1/ 5
KENOSHA   LAKESH 1300   68      CALM  /  2 1022.4
$$

TC  - TEMPERATURE IN CELSIUS
VSB - VISIBILITY IN STATUTE MILES
WCI - WIND CHILL INDEX
HX  - HEAT INDEX





USA.gov is the U.S. government's official web portal to all federal, state and local government web resources and services.